Location: Columbia
(38.9520°N, 92.3340°W)
Time: 13:59:03
(UTC-05:00)

Cosmos 1633 - Visible Passes

Search period start: 24 June 2017 00:00
Search period end: 04 July 2017 00:00
Orbit: 470 x 490 km, 82.5° (Epoch: 23 June)

Date Brightness Start Highest point End Pass type
(mag) Time Alt. Az. Time Alt. Az. Time Alt. Az.
24 Jun 3.0 04:29:00 20° SW 04:31:13 45° W 04:34:45 10° N visible
25 Jun 2.4 04:03:25 30° S 04:05:08 85° W 04:08:48 10° N visible
26 Jun 3.1 03:37:49 33° SSE 03:39:06 52° E 03:42:39 10° NNE visible
27 Jun 4.1 03:12:12 26° ESE 03:13:06 29° E 03:16:18 10° NNE visible
27 Jun 4.6 04:46:29 11° WSW 04:48:08 14° WNW 04:50:10 10° NW visible
28 Jun 4.8 02:46:33 17° E 02:47:09 17° E 02:49:36 10° NE visible
28 Jun 4.0 04:20:50 20° WSW 04:21:56 23° WNW 04:24:54 10° NNW visible
29 Jun 5.4 02:20:54 10° E 02:21:15 10° E 02:21:36 10° E visible
29 Jun 3.1 03:55:10 36° WSW 03:55:47 40° W 03:59:13 10° N visible
30 Jun 2.4 03:29:28 71° WSW 03:29:40 74° W 03:33:17 10° N visible
01 Jul 2.9 03:03:46 59° E 03:03:46 59° E 03:07:10 10° NNE visible
02 Jul 4.0 02:38:02 31° ENE 02:38:02 31° ENE 02:40:51 10° NNE visible
02 Jul 4.7 04:12:19 12° W 04:12:41 13° WNW 04:14:20 10° NW visible
03 Jul 4.9 02:12:17 18° ENE 02:12:17 18° ENE 02:14:15 10° NE visible
03 Jul 4.2 03:46:34 21° WNW 03:46:34 21° WNW 03:49:14 10° NNW visible
